Location: Newark
(45.4422°N, 16.2769°E)
Time: 00:49:54
(UTC+00:00)

Vanguard 2 - Pass Details

Date: 11 December 2019
Orbit: 553 x 2938 km, 32.9° (Epoch: 26 January)

Event Time Altitude Azimuth Distance (km) Brightness Sun altitude
Rises 06:12:46 0° 276° (W) 6,795 11.8 -2.5°
Reaches altitude 10° 06:18:27 10° 266° (W) 5,706 11.5 -1.7°
Maximum altitude 06:31:03 27° 219° (SW) 3,968 11.1 0.2°
Drops below altitude 10° 06:41:02 10° 169° (SSE) 4,431 12.2 1.6°
Sets 06:44:47 0° 157° (SSE) 5,075 12.9 2.1°
